Tracking 31027 objects as of 19-Jul-2025
HD Live streaming from Space Station
objects crossing your sky now

STARLINK-30056

Track STARLINK-30056 now!
10-day predictions
STARLINK-30056 is classified as:


NORAD ID: 57622
Int'l Code: 2023-119W
Perigee: 565.3 km
Apogee: 567.2 km
Inclination: 43.0 °
Period: 95.8 minutes
Semi major axis: 6937 km
RCS: Unknown
Launch date: August 11, 2023
Source: United States (US)
Launch site: AIR FORCE EASTERN TEST RANGE (AFETR)
Your satellite tracking list
EUTE 33A (EB 3)
Track 1 satellite(s)




NASA's NSSDC Master Catalog

Two Line Element Set (TLE):
1 57622U 23119W   25199.56125576 -.00000143  00000-0  44976-5 0  9995
2 57622  43.0021 274.0566 0001368 276.1186  83.9500 15.02534596107859
Source of the keplerian elements: AFSPC